Location: Oriwa
(40.7500°S, 175.3333°E)
Time: 14:09:48
(UTC+00:00)

Cosmos 1980 Rocket - Pass Details

Date: 03 February 2023
Orbit: 828 x 850 km, 71.0° (Epoch: 30 March)

Event Time Altitude Azimuth Distance (km) Brightness Sun altitude
Rises 16:04:11 0° 6° (N) 3,389 5.0 -14.7°
Reaches altitude 10° 16:06:51 10° 16° (NNE) 2,459 4.4 -14.3°
Maximum altitude 16:11:45 31° 76° (ENE) 1,440 3.8 -13.5°
Drops below altitude 10° 16:16:40 10° 137° (SE) 2,473 6.0 -12.8°
Sets 16:19:22 0° 146° (SE) 3,412 6.8 -12.3°
